Terminal Aerodrome Forecast
Issued by NWS Wakefield, VA

Home | Current Version | Previous Version | Text Only | Print | Product List | Glossary On
Versions: 1 2 3 4 5 6 7 8 9 10 11 12 13 14 15 16 17 18 19
000
FTUS41 KAKQ 240548 RRA
TAFRIC
TAF
KRIC 240548Z 2406/2506 01004KT P6SM BKN070
     FM241400 02007KT P6SM BKN070
     FM242300 01003KT P6SM BKN080=

USA.gov is the U.S. government's official web portal to all federal, state and local government web resources and services.